Location: Congrier
(47.8099°N, 1.1170°W)
Time: 23:42:39
(UTC+00:00)

Okean O Rocket - Pass Details

Date: 28 January 2023
Orbit: 620 x 643 km, 98.1° (Epoch: 01 April)

Event Time Altitude Azimuth Distance (km) Brightness Sun altitude
Exits shadow 20:24:54 - 224° (SW) 2,051 4.5 -34.6°
Reaches altitude 10° 20:25:04 10° 226° (SW) 2,003 4.5 -34.6°
Maximum altitude 20:28:01 18° 269° (W) 1,569 4.2 -35.1°
Drops below altitude 10° 20:31:00 10° 312° (NW) 2,025 4.8 -35.6°
Sets 20:33:53 0° 332° (NNW) 2,945 5.5 -36.0°
